User: anonymous   Login
Location: Unspecified
(0.0000°N, 0.0000°E)
Time: 10:07:03
(UTC+00:00)
Language:

TBA - TO BE ASSIGNED - Orbit

View from above orbital plane
View from above orbital plane
View from above satellite
View from above satellite

Ground track
Ground track

The orbit is defined by the following mean orbital elements,

1 67793U          26145.58335647 +.00000000 +00000-0 +18423-2 0 00004
2 67793  51.8856 208.5844 0011412 320.0822 117.9165 15.33589312    04
Epoch (UTC): 25 May 2026 14:00:01
Eccentricity: 0.0011412
inclination: 51.8856°
perigee height: 457 km
apogee height: 473 km
right ascension of ascending node: 208.5844°
argument of perigee: 320.0822°
revolutions per day: 15.33589312
mean anomaly at epoch: 117.9165°

The dashed part of the orbit path shows where the satellite is in the earth's shadow,  

DLR